Theta_e
277 279 279 280 280 281 281 283 278 279 277 284 286 286 287 288 288 286 286 285 284 283 283 283 284 286 286 286 286 287 287 287 287 288 288 288 289 290 291 291 291 292 292 292
273 275 278 277 280 280 279 282 283 283 282 289 289 289 285 287 287 287 287 286 285 285 283 282 282 284 285 286 285 288 286 286 287 287 286 286 286 287 287 287 288 289 289 289
276 271 271 276 277 280 283 284 284 280 286 289 287 287 288 289 288 288 289 288 287 285 283 282 282 283 285 285 286 287 286 285 286 285 285 285 285 285 285 285 286 285 287 288
275 273 276 283 284 284 283 285 286 286 288 288 289 290 290 291 291 290 289 288 287 286 285 284 284 283 285 286 285 285 286 285 285 285 284 285 284 283 284 284 284 284 285 286
273 272 279 280 281 283 282 286 287 287 289 290 289 290 291 292 292 293 291 289 288 287 285 284 284 284 284 284 284 283 283 284 285 285 284 284 283 283 283 283 283 282 283 284
272 273 275 282 285 288 288 283 290 289 289 290 289 286 291 290 292 292 291 289 287 286 284 283 283 284 284 283 283 282 282 283 284 284 284 282 283 282 283 283 282 282 282 283
273 274 277 283 288 288 282 286 289 290 290 289 288 292 288 290 289 291 289 287 287 285 284 283 281 282 281 281 280 281 282 282 283 283 283 283 282 283 282 282 282 281 281 281
272 271 274 282 286 285 290 290 291 289 290 290 292 289 288 290 289 288 286 286 286 285 283 282 280 281 281 280 278 280 281 281 281 282 282 282 282 282 282 282 281 280 281 281
278 279 283 286 290 292 290 291 291 291 291 291 290 289 288 288 288 287 286 286 285 283 282 279 277 278 280 278 276 279 281 278 279 280 281 282 282 281 281 281 281 280 280 280
277 284 282 283 286 289 290 291 292 291 291 290 290 291 289 288 287 286 284 283 282 280 279 279 276 276 278 275 275 280 280 280 281 280 280 281 282 282 282 281 280 280 280 279
278 281 282 283 283 286 288 290 290 291 291 290 291 290 291 288 285 285 284 281 281 280 280 280 278 276 274 273 275 280 280 281 281 281 280 280 280 281 281 281 281 280 280 279
283 285 286 285 287 287 285 285 288 290 289 287 289 290 288 287 287 285 283 282 279 280 280 280 276 275 273 270 275 280 280 280 281 281 280 279 280 279 281 281 281 280 281 280
287 286 285 285 281 283 285 285 286 287 289 289 287 288 287 288 286 285 285 282 280 280 280 280 277 275 273 270 275 279 281 281 281 280 280 278 277 279 277 278 279 278 278 279
285 282 283 282 286 284 282 281 279 282 284 286 288 285 287 286 282 283 283 283 283 281 279 278 277 276 273 272 277 279 281 281 281 281 280 278 276 277 277 278 277 276 273 275
284 284 286 281 279 278 275 275 277 280 281 280 281 284 284 284 284 283 284 282 281 279 278 276 276 276 272 272 277 278 280 281 281 281 280 279 276 274 275 274 275 275 273 273
285 286 282 281 283 282 277 275 277 281 280 281 280 280 284 286 286 286 283 279 279 279 278 276 276 278 272 271 276 278 279 279 280 280 279 279 278 275 274 274 273 273 273 275
279 278 277 278 282 282 280 282 282 284 283 280 281 283 282 283 285 284 282 280 280 284 283 279 279 273 271 272 276 278 279 279 279 279 279 278 278 275 275 275 274 273 273 272
286 287 286 285 286 283 281 282 281 281 282 283 282 280 280 280 282 284 285 280 278 280 277 281 280 273 271 272 276 279 280 279 278 278 277 276 277 277 274 273 273 273 273 270
281 284 285 284 283 280 281 282 281 281 280 280 278 279 281 282 283 285 286 278 277 278 282 276 275 273 273 272 275 279 280 279 278 277 277 274 272 273 272 272 272 272 272 270
272 271 272 274 273 277 281 282 281 280 281 279 278 278 279 280 281 282 279 279 282 284 286 277 275 274 274 272 275 279 280 279 279 278 277 275 273 272 271 270 271 271 270 269
271 269 268 269 269 270 273 276 278 277 279 277 278 279 279 281 281 281 277 280 284 283 279 274 275 275 274 273 273 277 279 279 279 278 277 275 273 273 272 271 271 271 270 269
271 269 268 267 267 268 270 270 273 274 275 275 276 278 277 278 279 279 281 281 284 277 276 275 276 275 274 272 275 275 277 278 279 278 275 273 273 273 273 272 271 272 271 271
267 267 267 266 267 269 267 268 268 270 272 274 275 277 277 280 280 278 277 280 276 274 276 277 275 274 273 273 274 274 275 275 275 274 274 274 274 274 274 273 273 272 272 271
265 265 266 267 265 268 272 272 268 268 267 270 273 275 277 276 276 277 274 273 274 274 274 274 273 273 271 273 273 274 274 274 274 274 274 273 274 274 274 273 272 272 272 271
263 264 265 266 268 270 268 268 268 269 269 270 270 270 270 272 276 277 273 273 272 272 271 272 273 273 272 273 273 273 273 273 274 274 273 273 273 272 272 272 272 271 271 270
265 267 266 265 266 266 267 268 270 269 268 270 270 268 268 268 269 271 271 270 271 270 271 271 272 272 272 272 272 272 272 272 272 272 272 272 272 272 271 270 270 269 269 269
265 263 267 268 267 266 267 267 269 269 268 268 269 267 267 268 268 268 268 268 268 269 269 270 271 271 271 270 270 270 270 271 271 270 271 271 270 270 269 269 268 268 268 267
Wind_Speed
7 9 6 10 10 8 13 11 7 1 6 11 9 8 5 4 3 4 5 3 3 4 6 7 9 9 10 11 11 10 10 10 11 9 10 11 13 13 13 13 12 11 13 12
5 1 3 8 12 13 13 16 17 15 21 10 6 3 5 7 5 5 5 4 3 2 4 6 7 8 9 7 9 7 10 11 9 10 10 11 11 13 12 12 12 13 12 12
4 2 6 6 8 15 9 8 13 9 10 1 3 5 7 8 7 7 5 2 3 3 3 4 5 7 8 9 8 8 10 10 11 10 9 9 10 14 14 11 8 14 9 14
4 6 3 1 2 6 14 9 16 8 11 7 4 3 6 9 8 8 6 4 4 2 1 3 4 5 6 7 7 10 11 10 10 10 10 8 11 15 11 10 10 7 10 12
2 2 9 2 5 7 8 8 20 22 17 9 5 2 10 13 12 10 7 6 4 3 1 2 4 4 4 5 6 7 8 7 7 9 9 11 12 12 8 8 9 9 9 10
3 2 5 1 4 4 2 6 5 18 15 12 8 5 5 7 12 11 7 7 6 5 3 1 3 2 2 4 4 6 5 6 6 8 7 9 8 8 8 8 8 7 9 10
5 5 11 7 7 6 1 2 3 9 10 14 10 6 3 6 7 9 9 9 7 5 4 2 2 2 3 1 4 4 4 6 6 6 8 9 9 8 7 7 7 8 9 9
5 4 10 10 7 8 1 2 2 4 11 15 12 7 6 8 9 10 10 9 8 6 5 4 3 3 3 3 1 3 5 5 6 6 6 6 8 7 7 6 7 7 6 6
12 10 0 16 2 8 2 3 4 4 8 11 12 11 10 10 11 11 11 9 8 7 5 5 4 4 4 4 3 3 3 3 4 5 5 5 7 6 6 6 6 6 5 6
2 5 15 13 16 12 7 12 4 4 5 12 11 13 12 10 10 10 9 9 7 7 7 7 7 5 3 5 4 4 4 3 3 4 5 6 5 5 5 5 4 5 6 7
9 10 8 14 16 18 15 14 10 8 7 11 13 12 14 11 10 11 10 7 8 9 8 8 8 8 6 6 6 6 5 4 3 3 3 5 5 5 5 7 5 5 5 4
12 11 5 6 7 12 15 17 18 15 12 9 12 14 11 11 11 11 11 9 9 10 8 8 8 8 8 7 7 7 6 4 3 3 2 2 4 5 7 7 8 10 9 7
18 4 8 2 3 2 9 13 13 14 16 14 14 12 12 10 11 11 10 11 13 15 13 9 9 9 7 8 9 9 7 6 4 4 3 3 3 4 5 3 5 6 9 4
14 3 10 5 10 9 9 2 2 6 9 10 11 9 10 12 4 11 14 15 13 11 10 10 10 11 11 11 10 9 8 9 6 6 5 4 4 3 3 3 3 2 1 1
20 16 21 2 2 5 3 4 5 8 7 8 7 9 11 13 14 14 11 10 10 11 11 11 11 12 11 11 12 12 9 8 8 6 6 5 4 4 3 3 2 1 1 3
10 14 10 13 21 9 7 6 8 12 8 7 9 11 16 15 12 11 11 10 12 14 14 13 13 11 13 13 13 11 10 12 10 8 7 7 6 6 5 5 5 4 4 3
4 4 5 8 17 18 17 15 15 14 11 10 13 12 10 11 10 9 12 14 15 12 13 15 16 11 13 13 14 10 8 9 12 8 8 8 8 8 7 6 6 6 5 4
12 11 11 9 11 9 11 13 13 14 14 15 10 8 10 12 17 17 15 9 9 11 9 13 12 13 14 16 15 10 9 9 10 10 9 9 9 8 7 7 6 6 5 5
11 15 15 11 10 7 7 9 10 11 9 9 8 13 14 14 14 13 9 12 13 14 18 10 13 14 15 15 14 9 10 11 10 10 10 10 8 8 8 8 7 7 6 6
3 3 5 5 4 6 11 9 8 7 10 8 9 8 11 12 11 12 10 16 18 12 8 13 15 13 13 14 18 10 11 11 11 9 9 9 8 8 8 9 8 7 7 7
4 4 5 5 5 4 7 6 7 9 7 8 11 12 12 10 10 10 9 10 12 12 8 15 14 11 10 12 14 11 11 11 11 10 9 9 8 8 8 8 8 8 8 7
2 4 5 5 5 6 5 5 5 7 6 6 8 7 6 8 8 10 11 11 1 14 9 9 10 16 13 18 11 12 11 11 10 8 8 8 8 8 8 8 8 8 7 7
3 4 4 4 5 6 6 5 4 5 6 6 7 8 9 7 7 7 8 8 6 8 7 8 11 16 16 12 11 12 12 12 11 10 9 9 8 8 7 8 7 7 7 7
2 4 4 3 3 3 4 4 5 5 5 6 6 5 5 5 5 4 1 3 6 10 8 8 12 16 16 9 10 10 11 11 10 9 9 10 8 7 7 7 7 7 7 7
1 4 4 4 3 3 5 4 4 2 3 4 4 5 6 4 4 1 5 4 6 8 6 10 15 17 11 10 10 10 10 10 10 9 9 9 8 8 7 7 7 7 6 6
2 2 2 2 2 2 3 2 2 2 3 3 2 2 2 3 4 3 1 1 3 5 5 6 6 7 7 7 8 8 8 7 8 8 9 8 8 7 7 6 6 6 5 5
2 1 1 1 1 3 3 3 3 3 2 1 2 1 2 2 3 2 1 2 3 3 3 3 5 6 5 5 5 6 6 5 6 6 6 5 5 5 5 5 5 5 5 5
Wind_Direction
267 267 256 255 249 222 228 235 231 72 240 268 263 258 243 227 229 288 302 316 336 343 334 341 342 349 355 352 356 0 6 25 26 28 42 40 43 45 41 44 53 62 74 69
274 285 215 268 246 234 242 246 257 265 280 272 298 197 214 212 202 252 270 283 301 343 349 344 346 343 351 3 3 15 31 26 23 37 47 48 48 46 51 48 44 48 55 58
268 329 304 274 229 199 217 219 214 206 229 255 281 239 229 217 225 242 254 264 293 343 337 327 345 330 1 10 13 24 44 37 25 21 35 52 60 57 44 39 56 52 40 63
290 304 288 49 183 182 223 247 217 234 239 213 227 251 251 222 220 231 227 220 236 246 299 328 351 352 358 14 34 32 38 40 39 41 33 42 58 58 47 44 61 72 57 58
295 269 301 197 191 189 185 281 211 223 235 217 191 268 252 219 216 218 208 186 196 184 111 348 350 349 6 25 42 51 39 47 42 66 55 49 58 67 62 69 66 63 60 56
148 241 247 176 151 186 164 275 198 210 228 204 157 229 244 181 202 204 187 171 179 173 153 276 288 332 36 36 44 56 41 46 38 67 72 72 77 80 75 74 78 80 74 59
176 259 280 227 146 143 165 291 161 199 201 177 196 215 106 145 167 179 176 177 172 172 176 185 274 292 104 39 58 24 22 42 43 59 66 67 68 62 68 71 69 64 63 57
138 216 274 154 109 199 245 158 170 196 194 198 204 173 171 179 169 175 180 182 185 184 192 173 212 234 175 154 348 352 45 50 47 53 64 63 72 68 64 71 73 67 66 62
204 207 37 201 206 218 293 243 195 199 207 208 195 198 188 190 186 191 191 191 186 190 187 187 204 228 202 169 174 177 109 78 84 83 87 89 90 84 78 66 64 59 54 53
278 227 228 224 243 242 230 232 228 232 194 191 208 202 197 191 192 195 189 195 183 178 196 207 191 207 225 166 173 174 157 134 83 72 78 78 83 76 76 71 75 69 59 50
258 279 268 247 235 241 233 224 235 226 219 210 210 215 206 197 193 197 193 185 184 198 203 206 180 187 183 179 184 171 162 151 129 100 89 96 77 84 82 65 61 73 65 58
234 203 198 225 211 216 214 221 224 218 219 219 206 217 200 212 200 190 193 179 189 204 208 199 183 189 179 182 188 179 173 174 168 158 129 109 119 102 71 88 82 81 71 57
243 161 211 223 305 213 208 219 217 207 220 216 213 211 196 213 207 196 191 186 197 202 204 189 185 191 184 181 183 187 186 176 172 184 180 171 180 181 159 101 84 74 73 30
242 116 267 190 248 207 215 190 166 220 223 213 216 200 208 212 159 199 202 202 196 193 195 192 189 199 178 178 185 190 191 185 187 189 188 178 184 178 165 177 185 166 155 348
235 212 240 99 299 225 189 151 224 237 224 217 200 206 201 210 211 213 208 197 191 191 198 185 192 203 169 174 183 185 188 188 191 191 192 187 172 174 173 169 183 209 250 233
222 223 216 227 252 236 200 205 229 238 216 222 204 207 213 214 222 215 193 172 177 209 205 196 204 194 171 175 183 186 192 193 188 189 192 197 190 189 186 193 186 199 215 223
156 247 210 239 241 235 218 227 224 236 233 213 215 220 204 209 218 212 210 200 205 213 202 197 208 166 171 180 184 188 186 187 194 196 197 199 201 204 203 197 198 196 207 195
224 236 219 213 238 226 223 225 225 232 232 233 222 186 195 195 215 218 219 194 208 221 212 205 182 166 174 180 188 187 185 183 188 196 194 199 203 199 199 203 207 208 201 201
214 235 246 238 246 238 234 232 218 223 229 223 190 212 213 218 221 224 194 178 201 218 231 183 168 173 185 188 185 188 189 188 190 195 196 194 197 203 202 203 205 206 200 196
296 284 261 246 258 231 255 253 250 227 221 210 210 211 218 222 210 209 185 205 210 212 191 175 179 185 185 182 187 192 194 196 196 198 197 194 201 201 203 205 205 205 203 208
282 278 285 281 272 280 268 271 266 255 233 207 213 219 221 220 202 200 193 219 227 199 171 163 178 183 181 175 183 194 196 198 201 199 197 198 195 203 205 206 207 209 208 209
299 285 291 307 315 292 275 278 255 255 253 237 227 227 206 220 200 209 224 231 128 169 174 180 186 182 177 173 183 194 197 200 202 197 195 197 199 199 201 200 207 209 211 212
312 304 320 299 283 294 304 293 304 280 259 237 237 225 218 227 201 199 233 222 191 188 189 195 183 172 170 175 182 188 194 198 197 197 199 198 199 200 199 199 201 202 206 209
351 275 254 271 269 293 338 351 331 311 288 292 279 265 236 224 231 229 230 186 191 182 192 174 171 167 166 181 186 187 192 197 201 201 199 192 193 193 198 197 199 200 209 208
302 305 324 17 8 353 318 316 293 337 322 304 319 313 304 298 269 347 201 204 194 186 185 177 175 171 175 179 183 189 192 194 194 191 191 191 193 194 194 195 201 201 200 207
5 323 308 292 304 296 296 307 29 2 336 333 318 320 333 339 330 320 292 172 172 181 175 158 177 181 181 184 184 185 186 188 186 194 193 192 190 189 189 190 195 198 202 207
98 342 22 167 354 13 15 355 15 22 1 292 280 331 2 2 3 13 112 117 106 103 120 138 161 164 174 175 177 172 169 182 191 185 187 183 178 174 178 187 191 193 200 204